,,,PA_Meas_PMT16A,,PR_Meas_QMR101_102,,RH_Meas_QMH101,,SR_Meas_QMS101,,TA_Meas_QMH101,,GenWind,,GenWind,
date,time,status,PA,status,PR,status,RH,status,SR,status,TA,status,DirAvg,status,SpdAvg,
2009-03-12, 00:00:04,VALID,1004.25,VALID,0,VALID,81.8045,VALID,0,VALID,25.746,VALID,351,VALID,0.684766,
2009-03-12, 00:01:04,VALID,1004.25,VALID,0,VALID,82.0715,VALID,0,VALID,25.7674,VALID,346,VALID,0.505078,
2009-03-12, 00:02:04,VALID,1004.25,VALID,0,VALID,82.2775,VALID,0,VALID,25.748,VALID,346,VALID,0.435156,
2009-03-12, 00:03:04,VALID,1004.24,VALID,0,VALID,82.7734,VALID,0,VALID,25.7285,VALID,346,VALID,0.450391,
2009-03-12, 00:04:04,VALID,1004.2,VALID,0,VALID,83.0556,VALID,0,VALID,25.6895,VALID,347,VALID,0.719922,
2009-03-12, 00:05:04,VALID,1004.19,VALID,0,VALID,83.0785,VALID,0,VALID,25.6311,VALID,344,VALID,0.721484,
2009-03-12, 00:06:04,VALID,1004.19,VALID,0,VALID,83.1929,VALID,0,VALID,25.6116,VALID,347,VALID,0.551172,
2009-03-12, 00:07:04,VALID,1004.17,VALID,0,VALID,83.254,VALID,0,VALID,25.6136,VALID,350,VALID,0.557813,
2009-03-12, 00:08:04,VALID,1004.12,VALID,0,VALID,83.6659,VALID,0,VALID,25.5727,VALID,341,VALID,0.260156,
2009-03-12, 00:09:04,VALID,1004.11,VALID,0,VALID,83.6202,VALID,0,VALID,25.5532,VALID,341,VALID,0.428125,
2009-03-12, 00:10:04,VALID,1004.1,VALID,0,VALID,83.2692,VALID,0,VALID,25.5337,VALID,351,VALID,0.166016,
2009-03-12, 00:11:04,VALID,1004.08,VALID,0,VALID,83.4065,VALID,0,VALID,25.5532,VALID,349,VALID,0.514063,
2009-03-12, 00:12:04,VALID,1004.08,VALID,0,VALID,83.3379,VALID,0,VALID,25.5337,VALID,343,VALID,0.533203,
2009-03-12, 00:13:04,VALID,1004.08,VALID,0,VALID,83.9558,VALID,0,VALID,25.5318,VALID,343,VALID,0.133594,
2009-03-12, 00:14:04,VALID,1004.07,VALID,0,VALID,83.6812,VALID,0,VALID,25.5532,VALID,343,VALID,0.367578,
2009-03-12, 00:15:04,VALID,1004.06,VALID,0,VALID,82.9336,VALID,0,VALID,25.5337,VALID,352,VALID,0.681641,
2009-03-12, 00:16:04,VALID,1004.04,VALID,0,VALID,82.4682,VALID,0,VALID,25.5727,VALID,333,VALID,0.51875,
2009-03-12, 00:17:04,VALID,1004.03,VALID,0,VALID,83.7498,VALID,0,VALID,25.6116,VALID,344,VALID,0.344531,
2009-03-12, 00:18:04,VALID,1003.99,VALID,0,VALID,84.0703,VALID,0,VALID,25.5921,VALID,7,VALID,0.39375,
2009-03-12, 00:19:04,VALID,1003.97,VALID,0,VALID,84.94,VALID,0,VALID,25.5337,VALID,7,VALID,0.271875,
2009-03-12, 00:20:04,VALID,1003.96,VALID,0,VALID,85.0849,VALID,0,VALID,25.4753,VALID,7,VALID,0.380859,
2009-03-12, 00:21:04,VALID,1003.97,VALID,0,VALID,85.0544,VALID,0,VALID,25.4169,VALID,6,VALID,0.525781,
2009-03-12, 00:22:04,VALID,1003.94,VALID,0,VALID,85.268,VALID,0,VALID,25.3779,VALID,6,VALID,0.348047,
2009-03-12, 00:23:04,VALID,1003.89,VALID,0,VALID,84.7492,VALID,0,VALID,25.339,VALID,5,VALID,0.389453,
2009-03-12, 00:24:04,VALID,1003.92,VALID,0,VALID,84.5661,VALID,0,VALID,25.3584,VALID,4,VALID,0.189844,
2009-03-12, 00:25:04,VALID,1003.89,VALID,0,VALID,84.1313,VALID,0,VALID,25.3798,VALID,4,VALID,0.366016,
2009-03-12, 00:26:04,VALID,1003.88,VALID,0,VALID,84.1389,VALID,0,VALID,25.3974,VALID,4,VALID,0.282031,
2009-03-12, 00:27:04,VALID,1003.85,VALID,0,VALID,84.1771,VALID,0,VALID,25.4169,VALID,3,VALID,0.234766,
2009-03-12, 00:28:04,VALID,1003.82,VALID,0,VALID,84.7416,VALID,0,VALID,25.4169,VALID,3,VALID,0.214062,
2009-03-12, 00:29:04,VALID,1003.8,VALID,0,VALID,85.3595,VALID,0,VALID,25.4169,VALID,3,VALID,0.040625,
2009-03-12, 00:30:04,VALID,1003.82,VALID,0,VALID,85.6723,VALID,0,VALID,25.3779,VALID,3,VALID,0.0121094,
2009-03-12, 00:31:04,VALID,1003.79,VALID,0,VALID,86.0461,VALID,0,VALID,25.339,VALID,3,VALID,0,
2009-03-12, 00:32:04,VALID,1003.8,VALID,0,VALID,86.4047,VALID,0,VALID,25.2806,VALID,3,VALID,0,
2009-03-12, 00:33:04,VALID,1003.79,VALID,0,VALID,87.4041,VALID,0,VALID,25.2611,VALID,3,VALID,0,
2009-03-12, 00:34:04,VALID,1003.75,VALID,0,VALID,87.343,VALID,0,VALID,25.1832,VALID,3,VALID,0,
2009-03-12, 00:35:04,VALID,1003.77,VALID,0,VALID,87.0837,VALID,0,VALID,25.1248,VALID,3,VALID,0.424219,
2009-03-12, 00:36:04,VALID,1003.73,VALID,0,VALID,87.0837,VALID,0,VALID,25.0858,VALID,3,VALID,0.387891,
2009-03-12, 00:37:04,VALID,1003.71,VALID,0,VALID,87.5261,VALID,0,VALID,25.0663,VALID,3,VALID,0.239063,
2009-03-12, 00:38:04,VALID,1003.69,VALID,0,VALID,87.8237,VALID,0,VALID,25.0469,VALID,3,VALID,0.274609,
2009-03-12, 00:39:04,VALID,1003.71,VALID,0,VALID,88.2051,VALID,0,VALID,25.0274,VALID,3,VALID,0.501172,
2009-03-12, 00:40:04,VALID,1003.68,VALID,0,VALID,88.5179,VALID,0,VALID,24.9885,VALID,3,VALID,0.276953,
2009-03-12, 00:41:04,VALID,1003.67,VALID,0,VALID,88.6781,VALID,0,VALID,24.9476,VALID,3,VALID,0.371094,
2009-03-12, 00:42:04,VALID,1003.67,VALID,0,VALID,88.9375,VALID,0,VALID,24.9106,VALID,3,VALID,0.333984,
2009-03-12, 00:43:04,VALID,1003.67,VALID,0,VALID,89.2884,VALID,0,VALID,24.9319,VALID,3,VALID,0.319922,
2009-03-12, 00:44:04,VALID,1003.68,VALID,0,VALID,89.2655,VALID,0,VALID,24.8522,VALID,3,VALID,0.532812,
2009-03-12, 00:45:04,VALID,1003.66,VALID,0,VALID,89.5249,VALID,0,VALID,24.8522,VALID,3,VALID,0.253125,
2009-03-12, 00:46:04,VALID,1003.69,VALID,0,VALID,89.6165,VALID,0,VALID,24.8327,VALID,3,VALID,0.5125,
2009-03-12, 00:47:04,VALID,1003.68,VALID,0,VALID,89.7843,VALID,0,VALID,24.7919,VALID,3,VALID,0.302344,
2009-03-12, 00:48:04,VALID,1003.68,VALID,0,VALID,89.8453,VALID,0,VALID,24.7937,VALID,3,VALID,0.302344,
2009-03-12, 00:49:04,VALID,1003.71,VALID,0,VALID,89.8911,VALID,0,VALID,24.7743,VALID,3,VALID,0.301172,
2009-03-12, 00:50:04,VALID,1003.72,VALID,0,VALID,89.7538,VALID,0,VALID,24.7353,VALID,3,VALID,0.258203,
2009-03-12, 00:51:04,VALID,1003.75,VALID,0,VALID,89.975,VALID,0,VALID,24.7548,VALID,3,VALID,0.395312,
2009-03-12, 00:52:04,VALID,1003.71,VALID,0,VALID,89.8606,VALID,0,VALID,24.7548,VALID,3,VALID,0.584375,
2009-03-12, 00:53:04,VALID,1003.71,VALID,0,VALID,89.9369,VALID,0,VALID,24.7548,VALID,3,VALID,0.360547,
2009-03-12, 00:54:04,VALID,1003.66,VALID,0,VALID,90.0208,VALID,0,VALID,24.7743,VALID,3,VALID,0.4125,
2009-03-12, 00:55:04,VALID,1003.67,VALID,0,VALID,89.9826,VALID,0,VALID,24.7743,VALID,3,VALID,0.4875,
2009-03-12, 00:56:04,VALID,1003.64,VALID,0,VALID,89.8148,VALID,0,VALID,24.7956,VALID,356,VALID,0.655859,
2009-03-12, 00:57:04,VALID,1003.65,VALID,0,VALID,89.3494,VALID,0,VALID,24.8132,VALID,341,VALID,0.213672,
2009-03-12, 00:58:04,VALID,1003.63,VALID,0,VALID,88.9985,VALID,0,VALID,24.9106,VALID,344,VALID,0.359375,
2009-03-12, 00:59:04,VALID,1003.62,VALID,0,VALID,88.556,VALID,0,VALID,24.969,VALID,321,VALID,0.361328,
2009-03-12, 01:00:04,VALID,1003.64,VALID,0,VALID,88.2356,VALID,0,VALID,25.0274,VALID,348,VALID,0.199219,
2009-03-12, 01:01:04,VALID,1003.62,VALID,0,VALID,87.2591,VALID,0,VALID,25.0644,VALID,350,VALID,0.821875,
2009-03-12, 01:02:04,VALID,1003.62,VALID,0,VALID,86.8167,VALID,0,VALID,25.1637,VALID,343,VALID,0.437109,
2009-03-12, 01:03:04,VALID,1003.58,VALID,0,VALID,86.481,VALID,0,VALID,25.2416,VALID,348,VALID,0.526172,
2009-03-12, 01:04:04,VALID,1003.59,VALID,0,VALID,86.0995,VALID,0,VALID,25.2611,VALID,6,VALID,0.417578,
2009-03-12, 01:05:04,VALID,1003.6,VALID,0,VALID,85.1917,VALID,0,VALID,25.3,VALID,358,VALID,0.855469,
2009-03-12, 01:06:04,VALID,1003.58,VALID,0,VALID,84.6806,VALID,0,VALID,25.3584,VALID,344,VALID,0.411328,
2009-03-12, 01:07:04,VALID,1003.56,VALID,0,VALID,84.261,VALID,0,VALID,25.4363,VALID,352,VALID,0.634766,
2009-03-12, 01:08:04,VALID,1003.54,VALID,0,VALID,83.9329,VALID,0,VALID,25.4753,VALID,348,VALID,0.607031,
2009-03-12, 01:09:04,VALID,1003.56,VALID,0,VALID,83.8948,VALID,0,VALID,25.5142,VALID,330,VALID,0.160156,
2009-03-12, 01:10:04,VALID,1003.54,VALID,0,VALID,83.9024,VALID,0,VALID,25.5337,VALID,330,VALID,0.294531,
2009-03-12, 01:11:04,VALID,1003.52,VALID,0,VALID,83.521,VALID,0.100563,VALID,25.5318,VALID,11,VALID,0.729688,
2009-03-12, 01:12:04,VALID,1003.53,VALID,0,VALID,83.3913,VALID,0.100563,VALID,25.5513,VALID,353,VALID,0.50625,
2009-03-12, 01:13:04,VALID,1003.49,VALID,0,VALID,83.4065,VALID,0.100563,VALID,25.5707,VALID,353,VALID,0.223438,
2009-03-12, 01:14:04,VALID,1003.51,VALID,0,VALID,83.4142,VALID,0.100563,VALID,25.5921,VALID,353,VALID,0.305078,
2009-03-12, 01:15:04,VALID,1003.55,VALID,0,VALID,83.7498,VALID,0,VALID,25.5921,VALID,353,VALID,0.205469,
2009-03-12, 01:16:04,VALID,1003.48,VALID,0,VALID,83.8261,VALID,0.100563,VALID,25.5707,VALID,353,VALID,0.000390625,
2009-03-12, 01:17:04,VALID,1003.46,VALID,0,VALID,83.8338,VALID,0,VALID,25.5707,VALID,354,VALID,0.252344,
2009-03-12, 01:18:04,VALID,1003.47,VALID,0,VALID,84.0016,VALID,0,VALID,25.5727,VALID,354,VALID,0.0128906,
2009-03-12, 01:19:04,VALID,1003.44,VALID,0,VALID,83.5973,VALID,0,VALID,25.5727,VALID,314,VALID,0.666016,
2009-03-12, 01:20:04,VALID,1003.45,VALID,0,VALID,83.7804,VALID,0.100563,VALID,25.5707,VALID,315,VALID,0.24375,
2009-03-12, 01:21:04,VALID,1003.42,VALID,0,VALID,83.5591,VALID,0,VALID,25.5707,VALID,334,VALID,0.468359,
2009-03-12, 01:22:04,VALID,1003.43,VALID,0,VALID,83.6125,VALID,0,VALID,25.5513,VALID,353,VALID,0.8125,
2009-03-12, 01:23:04,VALID,1003.43,VALID,0,VALID,83.6659,VALID,0.100563,VALID,25.5318,VALID,343,VALID,0.474609,
2009-03-12, 01:24:04,VALID,1003.44,VALID,0,VALID,83.5286,VALID,0,VALID,25.5337,VALID,17,VALID,1.41602,
2009-03-12, 01:25:04,VALID,1003.43,VALID,0,VALID,83.2692,VALID,0,VALID,25.5532,VALID,345,VALID,0.782031,
2009-03-12, 01:26:04,VALID,1003.44,VALID,0,VALID,83.4371,VALID,0,VALID,25.5513,VALID,8,VALID,0.60625,
2009-03-12, 01:27:04,VALID,1003.41,VALID,0,VALID,83.3913,VALID,0,VALID,25.5727,VALID,347,VALID,0.683984,
2009-03-12, 01:28:04,VALID,1003.44,VALID,0,VALID,83.4752,VALID,0.100563,VALID,25.5727,VALID,357,VALID,0.812891,
2009-03-12, 01:29:04,VALID,1003.41,VALID,0,VALID,83.5057,VALID,0,VALID,25.5532,VALID,343,VALID,0.585938,
2009-03-12, 01:30:04,VALID,1003.4,VALID,0,VALID,83.8261,VALID,0,VALID,25.5337,VALID,360,VALID,0.689062,
2009-03-12, 01:31:04,VALID,1003.38,VALID,0,VALID,84.0016,VALID,0,VALID,25.4928,VALID,1,VALID,0.696875,
2009-03-12, 01:32:04,VALID,1003.38,VALID,0,VALID,84.2152,VALID,0,VALID,25.5142,VALID,346,VALID,0.410937,
2009-03-12, 01:33:04,VALID,1003.35,VALID,0,VALID,84.5127,VALID,0,VALID,25.5142,VALID,18,VALID,0.5,
2009-03-12, 01:34:04,VALID,1003.4,VALID,0,VALID,84.795,VALID,0,VALID,25.4928,VALID,339,VALID,1.02188,
2009-03-12, 01:35:04,VALID,1003.38,VALID,0,VALID,84.9476,VALID,0.100563,VALID,25.5513,VALID,351,VALID,0.728516,
2009-03-12, 01:36:04,VALID,1003.4,VALID,0,VALID,85.0086,VALID,0,VALID,25.6116,VALID,341,VALID,0.579687,
2009-03-12, 01:37:04,VALID,1003.42,VALID,0,VALID,85.123,VALID,0,VALID,25.5902,VALID,10,VALID,0.467578,
2009-03-12, 01:38:04,VALID,1003.4,VALID,0,VALID,85.2604,VALID,0,VALID,25.6311,VALID,359,VALID,0.789844,
2009-03-12, 01:39:04,VALID,1003.4,VALID,0,VALID,85.4129,VALID,0,VALID,25.6292,VALID,7,VALID,0.812109,
2009-03-12, 01:40:04,VALID,1003.36,VALID,0,VALID,85.4282,VALID,0,VALID,25.6506,VALID,360,VALID,0.673437,
2009-03-12, 01:41:04,VALID,1003.35,VALID,0,VALID,85.5503,VALID,0,VALID,25.6506,VALID,8,VALID,0.63125,
2009-03-12, 01:42:04,VALID,1003.33,VALID,0,VALID,85.5503,VALID,0,VALID,25.5902,VALID,3,VALID,1.87734,
2009-03-12, 01:43:04,VALID,1003.34,VALID,0,VALID,85.4129,VALID,0,VALID,25.5707,VALID,347,VALID,0.967969,
2009-03-12, 01:44:04,VALID,1003.32,VALID,0,VALID,85.8096,VALID,0,VALID,25.5707,VALID,355,VALID,1.42148,
2009-03-12, 01:45:04,VALID,1003.3,VALID,0,VALID,85.9088,VALID,0,VALID,25.5727,VALID,339,VALID,0.776953,
2009-03-12, 01:46:04,VALID,1003.31,VALID,0,VALID,86.0919,VALID,0.100563,VALID,25.5727,VALID,345,VALID,0.532031,
2009-03-12, 01:47:04,VALID,1003.32,VALID,0,VALID,86.6488,VALID,0,VALID,25.5318,VALID,8,VALID,1.24961,
2009-03-12, 01:48:04,VALID,1003.3,VALID,0,VALID,86.7251,VALID,0.100563,VALID,25.5123,VALID,360,VALID,0.433984,
2009-03-12, 01:49:04,VALID,1003.31,VALID,0,VALID,86.9158,VALID,0,VALID,25.5142,VALID,359,VALID,0.999219,
2009-03-12, 01:50:04,VALID,1003.29,VALID,0,VALID,87.0684,VALID,0,VALID,25.5142,VALID,350,VALID,1.12188,
2009-03-12, 01:51:04,VALID,1003.28,VALID,0,VALID,87.1142,VALID,0,VALID,25.5142,VALID,352,VALID,0.963281,
2009-03-12, 01:52:04,VALID,1003.24,VALID,0,VALID,86.9616,VALID,0,VALID,25.5123,VALID,337,VALID,1.20391,
2009-03-12, 01:53:04,VALID,1003.22,VALID,0,VALID,86.9235,VALID,0,VALID,25.5318,VALID,339,VALID,1.03164,
2009-03-12, 01:54:04,VALID,1003.2,VALID,0,VALID,86.7785,VALID,0,VALID,25.5337,VALID,342,VALID,0.994141,
2009-03-12, 01:55:04,VALID,1003.19,VALID,0,VALID,86.8548,VALID,0,VALID,25.5337,VALID,351,VALID,0.903125,
2009-03-12, 01:56:04,VALID,1003.14,VALID,0,VALID,86.7556,VALID,0,VALID,25.4734,VALID,351,VALID,1.63047,
2009-03-12, 01:57:04,VALID,1003.17,VALID,0,VALID,86.5802,VALID,0.100563,VALID,25.4734,VALID,351,VALID,1.34609,
2009-03-12, 01:58:04,VALID,1003.15,VALID,0,VALID,86.5649,VALID,0,VALID,25.5142,VALID,360,VALID,1.65234,
2009-03-12, 01:59:04,VALID,1003.17,VALID,0,VALID,86.6641,VALID,0,VALID,25.4948,VALID,347,VALID,0.808594,
2009-03-12, 02:00:04,VALID,1003.15,VALID,0,VALID,86.5344,VALID,0,VALID,25.4539,VALID,355,VALID,1.71172,
2009-03-12, 02:01:04,VALID,1003.17,VALID,0,VALID,86.687,VALID,0,VALID,25.4772,VALID,359,VALID,0.527344,
2009-03-12, 02:02:04,VALID,1003.17,VALID,0,VALID,86.6031,VALID,0,VALID,25.4558,VALID,5,VALID,1.62266,
2009-03-12, 02:03:04,VALID,1003.16,VALID,0,VALID,86.3208,VALID,0,VALID,25.4363,VALID,354,VALID,1.21133,
2009-03-12, 02:04:04,VALID,1003.18,VALID,0,VALID,86.2979,VALID,0,VALID,25.4363,VALID,359,VALID,1.31953,
2009-03-12, 02:05:04,VALID,1003.18,VALID,0,VALID,86.2903,VALID,0,VALID,25.4363,VALID,359,VALID,1.58516,
2009-03-12, 02:06:04,VALID,1003.2,VALID,0,VALID,86.4123,VALID,0,VALID,25.4363,VALID,4,VALID,1.27734,
2009-03-12, 02:07:04,VALID,1003.2,VALID,0,VALID,86.1911,VALID,0,VALID,25.4169,VALID,352,VALID,1.46758,
2009-03-12, 02:08:04,VALID,1003.21,VALID,0,VALID,86.4581,VALID,0,VALID,25.3955,VALID,5,VALID,0.630469,
2009-03-12, 02:09:04,VALID,1003.25,VALID,0,VALID,86.6793,VALID,0,VALID,25.376,VALID,1,VALID,0.815234,
2009-03-12, 02:10:04,VALID,1003.26,VALID,0,VALID,86.5573,VALID,0,VALID,25.3779,VALID,357,VALID,0.971484,
2009-03-12, 02:11:04,VALID,1003.29,VALID,0,VALID,86.6336,VALID,0,VALID,25.3584,VALID,333,VALID,0.784766,
2009-03-12, 02:12:04,VALID,1003.31,VALID,0,VALID,86.5878,VALID,0,VALID,25.3584,VALID,11,VALID,1.06523,
2009-03-12, 02:13:04,VALID,1003.35,VALID,0,VALID,86.6183,VALID,0,VALID,25.339,VALID,352,VALID,0.651563,
2009-03-12, 02:14:04,VALID,1003.36,VALID,0,VALID,86.8929,VALID,0,VALID,25.339,VALID,349,VALID,1.20742,
2009-03-12, 02:15:04,VALID,1003.36,VALID,0,VALID,86.8624,VALID,0,VALID,25.3195,VALID,344,VALID,0.907031,
2009-03-12, 02:16:04,VALID,1003.38,VALID,0,VALID,87.0608,VALID,0,VALID,25.3,VALID,346,VALID,0.867578,
2009-03-12, 02:17:04,VALID,1003.36,VALID,0,VALID,87.4346,VALID,0,VALID,25.2806,VALID,5,VALID,0.497656,
2009-03-12, 02:18:04,VALID,1003.38,VALID,0,VALID,87.7398,VALID,0,VALID,25.2202,VALID,9,VALID,0.912891,
2009-03-12, 02:19:04,VALID,1003.42,VALID,0,VALID,87.8847,VALID,0,VALID,25.2027,VALID,4,VALID,0.660156,
2009-03-12, 02:20:04,VALID,1003.41,VALID,0,VALID,88.1746,VALID,0,VALID,25.1637,VALID,360,VALID,0.658203,
2009-03-12, 02:21:04,VALID,1003.43,VALID,0,VALID,88.4416,VALID,0,VALID,25.1053,VALID,360,VALID,1.10742,
2009-03-12, 02:22:04,VALID,1003.46,VALID,0,VALID,88.762,VALID,0,VALID,25.0663,VALID,333,VALID,1.20547,
2009-03-12, 02:23:04,VALID,1003.48,VALID,0,VALID,88.8383,VALID,0,VALID,25.0274,VALID,355,VALID,0.986719,
2009-03-12, 02:24:04,VALID,1003.48,VALID,0,VALID,89.2121,VALID,0,VALID,24.9885,VALID,341,VALID,0.958203,
2009-03-12, 02:25:04,VALID,1003.51,VALID,0.5,VALID,89.5631,VALID,0,VALID,24.9087,VALID,11,VALID,0.537891,
2009-03-12, 02:26:04,VALID,1003.46,VALID,0.5,VALID,90.0437,VALID,0,VALID,24.854,VALID,355,VALID,0.879687,
2009-03-12, 02:27:04,VALID,1003.49,VALID,0,VALID,90.4785,VALID,0,VALID,24.7743,VALID,3,VALID,0.978125,
2009-03-12, 02:28:04,VALID,1003.46,VALID,0.5,VALID,90.9668,VALID,0,VALID,24.6964,VALID,358,VALID,1.03594,
2009-03-12, 02:29:04,VALID,1003.45,VALID,0,VALID,91.3787,VALID,0,VALID,24.6185,VALID,357,VALID,0.447266,
2009-03-12, 02:30:04,VALID,1003.47,VALID,0,VALID,91.6305,VALID,0,VALID,24.5212,VALID,359,VALID,1.46328,
2009-03-12, 02:31:04,VALID,1003.47,VALID,0.5,VALID,91.8212,VALID,0,VALID,24.4822,VALID,356,VALID,1.30664,
2009-03-12, 02:32:04,VALID,1003.47,VALID,0,VALID,92.0501,VALID,0,VALID,24.422,VALID,1,VALID,1.06289,
2009-03-12, 02:33:04,VALID,1003.42,VALID,0.5,VALID,92.2408,VALID,0,VALID,24.4043,VALID,357,VALID,0.872656,
2009-03-12, 02:34:04,VALID,1003.4,VALID,0.5,VALID,92.4468,VALID,0,VALID,24.4043,VALID,358,VALID,1.55078,
2009-03-12, 02:35:04,VALID,1003.38,VALID,0,VALID,92.5917,VALID,0,VALID,24.3246,VALID,357,VALID,0.908203,
2009-03-12, 02:36:04,VALID,1003.34,VALID,0,VALID,92.7214,VALID,0,VALID,24.307,VALID,358,VALID,0.90625,
2009-03-12, 02:37:04,VALID,1003.35,VALID,0.5,VALID,92.7367,VALID,0,VALID,24.2468,VALID,15,VALID,1.12461,
2009-03-12, 02:38:04,VALID,1003.31,VALID,0,VALID,92.8358,VALID,0,VALID,24.2078,VALID,353,VALID,1.24023,
2009-03-12, 02:39:04,VALID,1003.33,VALID,0,VALID,92.9579,VALID,0,VALID,24.2097,VALID,354,VALID,0.923047,
2009-03-12, 02:40:04,VALID,1003.35,VALID,0.5,VALID,93.0113,VALID,0,VALID,24.2097,VALID,26,VALID,0.656641,
2009-03-12, 02:41:04,VALID,1003.32,VALID,0,VALID,93.08,VALID,0,VALID,24.1902,VALID,356,VALID,0.628516,
2009-03-12, 02:42:04,VALID,1003.37,VALID,0,VALID,93.0876,VALID,0,VALID,24.1513,VALID,354,VALID,1.2043,
2009-03-12, 02:43:04,VALID,1003.38,VALID,0,VALID,93.1791,VALID,0,VALID,24.1105,VALID,358,VALID,0.835156,
2009-03-12, 02:44:04,VALID,1003.35,VALID,0.5,VALID,93.2402,VALID,0,VALID,24.1318,VALID,351,VALID,1.44141,
2009-03-12, 02:45:04,VALID,1003.37,VALID,0,VALID,93.3241,VALID,0,VALID,24.1123,VALID,352,VALID,0.833203,
2009-03-12, 02:46:04,VALID,1003.37,VALID,0,VALID,93.3622,VALID,0,VALID,24.1123,VALID,2,VALID,1.59023,
2009-03-12, 02:47:04,VALID,1003.34,VALID,0,VALID,93.3928,VALID,0,VALID,24.1123,VALID,4,VALID,0.945313,
2009-03-12, 02:48:04,VALID,1003.34,VALID,0,VALID,93.4233,VALID,0,VALID,24.1105,VALID,5,VALID,1.59336,
2009-03-12, 02:49:04,VALID,1003.3,VALID,0.5,VALID,93.4462,VALID,0,VALID,24.1123,VALID,345,VALID,1.41602,
2009-03-12, 02:50:04,VALID,1003.3,VALID,0,VALID,93.4233,VALID,0,VALID,24.1513,VALID,353,VALID,0.995703,
2009-03-12, 02:51:04,VALID,1003.25,VALID,0,VALID,93.4538,VALID,0,VALID,24.1318,VALID,335,VALID,1.01172,
2009-03-12, 02:52:04,VALID,1003.25,VALID,0,VALID,93.4843,VALID,0,VALID,24.13,VALID,349,VALID,1.09648,
2009-03-12, 02:53:04,VALID,1003.23,VALID,0,VALID,93.4614,VALID,0,VALID,24.1318,VALID,2,VALID,1.80313,
2009-03-12, 02:54:04,VALID,1003.2,VALID,0,VALID,93.4385,VALID,0,VALID,24.1513,VALID,8,VALID,1.31523,
2009-03-12, 02:55:04,VALID,1003.2,VALID,0,VALID,93.4538,VALID,0,VALID,24.1513,VALID,5,VALID,0.677344,
2009-03-12, 02:56:04,VALID,1003.14,VALID,0,VALID,93.4996,VALID,0,VALID,24.1902,VALID,353,VALID,0.7875,
2009-03-12, 02:57:04,VALID,1003.14,VALID,0,VALID,93.4538,VALID,0,VALID,24.1707,VALID,358,VALID,1.84141,
2009-03-12, 02:58:04,VALID,1003.13,VALID,0,VALID,93.4996,VALID,0.100563,VALID,24.1494,VALID,354,VALID,0.964453,
2009-03-12, 02:59:04,VALID,1003.07,VALID,0,VALID,93.4614,VALID,0,VALID,24.1494,VALID,329,VALID,1.48555,
2009-03-12, 03:00:04,VALID,1003.07,VALID,0,VALID,93.469,VALID,0,VALID,24.1707,VALID,355,VALID,1.10469,
2009-03-12, 03:01:04,VALID,1003.04,VALID,0,VALID,93.4919,VALID,0,VALID,24.1707,VALID,347,VALID,1.53867,
2009-03-12, 03:02:04,VALID,1003.04,VALID,0.5,VALID,93.4385,VALID,0,VALID,24.1902,VALID,352,VALID,1.11953,
2009-03-12, 03:03:04,VALID,1003.07,VALID,0,VALID,93.3851,VALID,0.100563,VALID,24.1902,VALID,357,VALID,1.725,
2009-03-12, 03:04:04,VALID,1003.04,VALID,0,VALID,93.408,VALID,0.100563,VALID,24.2097,VALID,348,VALID,0.578906,
2009-03-12, 03:05:04,VALID,1003.03,VALID,0,VALID,93.347,VALID,0.100563,VALID,24.1884,VALID,349,VALID,0.834766,
2009-03-12, 03:06:04,VALID,1002.99,VALID,0,VALID,93.408,VALID,0,VALID,24.1689,VALID,358,VALID,1.41602,
2009-03-12, 03:07:04,VALID,1003,VALID,0,VALID,93.4233,VALID,0,VALID,24.1884,VALID,360,VALID,1.10977,
2009-03-12, 03:08:04,VALID,1002.98,VALID,0,VALID,93.3699,VALID,0,VALID,24.1902,VALID,355,VALID,1.64805,
2009-03-12, 03:09:04,VALID,1002.94,VALID,0,VALID,93.3394,VALID,0,VALID,24.1689,VALID,348,VALID,1.31797,
2009-03-12, 03:10:04,VALID,1002.91,VALID,0,VALID,93.3622,VALID,0.100563,VALID,24.1884,VALID,356,VALID,0.573828,
2009-03-12, 03:11:04,VALID,1002.92,VALID,0,VALID,93.3699,VALID,0,VALID,24.1884,VALID,355,VALID,0.910547,
2009-03-12, 03:12:04,VALID,1002.9,VALID,0,VALID,93.3317,VALID,0,VALID,24.1689,VALID,360,VALID,1.58477,
2009-03-12, 03:13:04,VALID,1002.84,VALID,0,VALID,93.2859,VALID,0,VALID,24.1494,VALID,1,VALID,1.38125,
2009-03-12, 03:14:04,VALID,1002.8,VALID,0,VALID,93.2478,VALID,0,VALID,24.1689,VALID,337,VALID,1.46016,
2009-03-12, 03:15:04,VALID,1002.79,VALID,0,VALID,93.2097,VALID,0,VALID,24.1902,VALID,351,VALID,1.44492,
2009-03-12, 03:16:04,VALID,1002.77,VALID,0,VALID,93.1868,VALID,0,VALID,24.1689,VALID,1,VALID,0.645703,
2009-03-12, 03:17:04,VALID,1002.76,VALID,0,VALID,93.2097,VALID,0,VALID,24.1902,VALID,357,VALID,1.34141,
2009-03-12, 03:18:04,VALID,1002.72,VALID,0,VALID,93.1791,VALID,0,VALID,24.1689,VALID,36,VALID,0.995313,
2009-03-12, 03:19:04,VALID,1002.71,VALID,0,VALID,93.1944,VALID,0.100563,VALID,24.1884,VALID,6,VALID,1.54805,
2009-03-12, 03:20:04,VALID,1002.7,VALID,0,VALID,93.1181,VALID,0,VALID,24.2097,VALID,349,VALID,1.12656,
2009-03-12, 03:21:04,VALID,1002.68,VALID,0,VALID,93.1257,VALID,0.100563,VALID,24.2078,VALID,25,VALID,1.37891,
2009-03-12, 03:22:04,VALID,1002.68,VALID,0,VALID,93.1715,VALID,0.100563,VALID,24.2291,VALID,324,VALID,0.582422,
2009-03-12, 03:23:04,VALID,1002.68,VALID,0,VALID,93.0876,VALID,0.100563,VALID,24.2291,VALID,360,VALID,0.620703,
2009-03-12, 03:24:04,VALID,1002.68,VALID,0,VALID,93.0647,VALID,0.100563,VALID,24.1884,VALID,347,VALID,1.70352,
2009-03-12, 03:25:04,VALID,1002.68,VALID,0,VALID,93.1105,VALID,0,VALID,24.1884,VALID,354,VALID,1.54727,
2009-03-12, 03:26:04,VALID,1002.69,VALID,0,VALID,93.1105,VALID,0,VALID,24.1884,VALID,345,VALID,0.905078,
2009-03-12, 03:27:04,VALID,1002.63,VALID,0,VALID,93.141,VALID,0,VALID,24.1689,VALID,358,VALID,1.13203,
2009-03-12, 03:28:04,VALID,1002.64,VALID,0,VALID,93.141,VALID,0,VALID,24.1689,VALID,358,VALID,0.8125,
2009-03-12, 03:29:04,VALID,1002.63,VALID,0,VALID,93.1715,VALID,0,VALID,24.1707,VALID,11,VALID,0.400781,
2009-03-12, 03:30:04,VALID,1002.63,VALID,0,VALID,93.1868,VALID,0.100563,VALID,24.1707,VALID,4,VALID,1.38555,
2009-03-12, 03:31:04,VALID,1002.65,VALID,0,VALID,93.2249,VALID,0,VALID,24.1494,VALID,11,VALID,1.11914,
2009-03-12, 03:32:04,VALID,1002.65,VALID,0,VALID,93.2402,VALID,0.100563,VALID,24.1494,VALID,359,VALID,1.43086,
2009-03-12, 03:33:04,VALID,1002.65,VALID,0,VALID,93.2325,VALID,0,VALID,24.1494,VALID,351,VALID,1.17305,
2009-03-12, 03:34:04,VALID,1002.64,VALID,0,VALID,93.2859,VALID,0,VALID,24.1707,VALID,318,VALID,0.815625,
2009-03-12, 03:35:04,VALID,1002.65,VALID,0,VALID,93.2631,VALID,0,VALID,24.1707,VALID,347,VALID,0.904297,
2009-03-12, 03:36:04,VALID,1002.62,VALID,0,VALID,93.2478,VALID,0,VALID,24.1281,VALID,350,VALID,1.0668,
2009-03-12, 03:37:04,VALID,1002.6,VALID,0,VALID,93.2707,VALID,0,VALID,24.13,VALID,352,VALID,1.46992,
2009-03-12, 03:38:04,VALID,1002.59,VALID,0,VALID,93.3165,VALID,0,VALID,24.13,VALID,354,VALID,1.13125,
2009-03-12, 03:39:04,VALID,1002.57,VALID,0,VALID,93.347,VALID,0,VALID,24.1105,VALID,359,VALID,0.9125,
2009-03-12, 03:40:04,VALID,1002.6,VALID,0,VALID,93.3699,VALID,0.100563,VALID,24.1105,VALID,270,VALID,0.363281,
2009-03-12, 03:41:04,VALID,1002.59,VALID,0,VALID,93.3928,VALID,0,VALID,24.1318,VALID,311,VALID,0.994531,
2009-03-12, 03:42:04,VALID,1002.62,VALID,0,VALID,93.4156,VALID,0,VALID,24.1105,VALID,329,VALID,1.04375,
2009-03-12, 03:43:04,VALID,1002.6,VALID,0,VALID,93.4919,VALID,0.100563,VALID,24.1105,VALID,303,VALID,1.06172,
2009-03-12, 03:44:04,VALID,1002.59,VALID,0,VALID,93.5301,VALID,0.100563,VALID,24.1318,VALID,307,VALID,0.705078,